DECAYED

OBJECT AP, 57041 (Decayed)

Orbit data source: Space-Track

You're viewing an Uncataloged Satellite

Recently launched and/or uncataloged satellites may have evolving metadata. Metadata may include but not limited to: Owner, Maufacturer, Bus, Motor, and Mission.

OBJECT AP, 57041 was a Chinese satellite in LEO that was launched on Thu, 15 Jun 2023 UTC via a CHANG ZHENG 2D launch vehicle from the Taiyaun Space Center, China (TSC). Unknown objects in Earth's orbit typically refer to objects detected orbiting the Earth but have not yet been identified or cataloged. These objects could be anything from previously untracked satellites, spent rocket stages, debris from satellite collisions, or even natural meteoroids temporarily captured by Earth's gravity. This object's orbit decayed before it could be identified.

Not visible in the next 10 days
Identifier
57041, 2023-085AP
Orbit
Decayed
Country
Flag of CNCN / PRC
Related business
None
Manufacturer
Unknown
Mission
Decayed Commercial Imaging
Bus & Motor
Unknown
Mass
Unknown
Launch date (UTC)
2023-06-15 (3 years ago)
Launch vehicle
CHANG ZHENG 2D
Launch site
Taiyaun Space Center, China (TSC)
Object type
Unknown
Shape & HBR
Box, 0.8 m
Radar Cross Section
2.000 m², Medium (>0.1 m² and < 1m²)

Expand to show TLE details & history
Last TLE update: 8 months ago

TLE from 8 months ago
0 OBJECT AP
1 57041U 23085AP  25297.97598951  .16847760  26322-5  35170-3 0  9991
2 57041  97.4651  61.2428 0010396 265.5348  94.4767 16.46240703131944
Epoch: 2025-10-24T23:25Z
TLE epoch observation values (Epoch: 2025-10-24T23:25:25.493Z)
Latitude
-0.00003°
Longitude
36.27341°
Altitude
153.048 km
Speed
7.814 km/s
True Right ascension
04h 04m 58s
True Declination
0° 00' 00"
Sunlit
Object was in full shadow at epoch
Visualization orbit readout
Latitude
Unknown
Longitude
Unknown
Altitude
Unknown
Speed
Unknown
Apparent Right ascension
Unknown
Apparent Declination
Unknown
Sunlit
N/A
Visualization observer readout
Local Sidereal Time
21:30:40
Azimuth
Unknown
Elevation
Unknown
Doppler factor
Unknown
Orbital elements
Apogee altitude
152.839 km
Perigee altitude
139.274 km
Semi-major axis
6,524.193 km
Eccentricity
0.00104
Inclination
97.4651°
RAAN
61.2428°
Arg. of periapsis
265.5348°
True anomaly
94.59545°
Mean anomaly
94.4767°
Eccentric anomaly
94.53608°
Mean motion
4.11863 °/min
Orbital period
87.41 mins
BSTAR
0.0003517
Loading maneuver chart data...
Computing Atmospheric mass density...
Loading historical data...
Loading historical data...
Loading historical data...
Loading historical data...
Loading historical data...
Loading historical data...
Loading historical data...

Documentation

Showing up to 5 results
|